Date String (YYYY-MM-DD hh:mm:ss) UTC,Instrument flags,Ambient pressure (hPa),Sample flow (lpm),Bypass flow (lpm),Sample temperature (°C),Ambient temperature (°C),ASC tube jacket temperature (°C),LED temperature (°C),Box temperature (°C),Sample RH (%),Span deviation,Mass concentration (μg/m³),Mass concentration (μg/m³),Mass concentration (μg/m³)
DateTimeUTC,F1_M11,P_M11,Q1_M11,Q2_M11,T1_M11,T2_M11,T3_M11,T4_M11,T5_M11,U1_M11,ZSPAN_M11,X2_M11,X0_M11,X1_M11
2022-10-06 01:00:00,,0833.7,5.01,0.00,29.8,28.6,00.0,38.4,31.7,18.3,0000.0,0005.11,0010.60,0004.68
2022-10-06 01:01:00,,0833.6,4.99,0.00,29.8,28.6,00.0,38.5,31.7,18.4,0000.0,0005.16,0010.58,0004.71
2022-10-06 01:02:00,,0833.6,5.01,0.00,29.8,28.7,00.0,38.5,31.7,18.2,0000.0,0005.21,0010.65,0004.73
2022-10-06 01:03:00,,0833.7,5.00,0.00,29.8,28.7,00.0,38.5,31.7,18.2,0000.0,0005.24,0010.72,0004.75
2022-10-06 01:04:00,,0833.6,4.99,0.00,29.8,28.8,00.0,38.5,31.7,18.1,0000.0,0005.22,0011.06,0004.76
2022-10-06 01:05:00,,0833.7,4.99,0.00,29.9,28.8,00.0,38.5,31.8,18.1,0000.0,0005.25,0010.62,0004.79
2022-10-06 01:06:00,,0833.7,5.00,0.00,29.9,28.8,00.0,38.5,31.8,18.1,0000.0,0005.26,0010.14,0004.81
2022-10-06 01:07:00,,0833.7,5.00,0.00,29.9,28.9,00.0,38.6,31.8,18.0,0000.0,0005.25,0009.87,0004.81
2022-10-06 01:08:00,,0833.7,4.99,0.00,29.9,28.9,00.0,38.6,31.9,17.9,0000.0,0005.26,0010.38,0004.82
2022-10-06 01:09:00,,0833.7,5.01,0.00,30.0,28.9,00.0,38.6,31.9,17.9,0000.0,0005.26,0010.23,0004.81
2022-10-06 01:10:00,,0833.7,4.99,0.00,30.0,29.0,00.0,38.6,31.9,17.9,0000.0,0005.24,0011.11,0004.81
2022-10-06 01:11:00,,0833.7,5.01,0.00,30.0,28.9,00.0,38.7,32.0,17.8,0000.0,0005.28,0011.88,0004.81
2022-10-06 01:12:00,,0833.7,5.00,0.00,30.0,27.6,00.0,38.6,31.8,17.9,0000.0,0005.26,0011.83,0004.81
2022-10-06 01:13:00,,0833.7,5.00,0.00,29.9,26.4,00.0,38.6,31.7,17.9,0000.0,0005.22,0011.78,0004.81
2022-10-06 01:14:00,,0833.7,5.01,0.00,29.9,26.5,00.0,38.6,31.5,18.0,0000.0,0005.24,0012.50,0004.83
2022-10-06 01:15:00,,0833.7,5.01,0.00,29.8,26.8,00.0,38.5,31.4,18.1,0000.0,0005.25,0012.13,0004.84
2022-10-06 01:16:00,,0833.8,5.01,0.00,29.7,27.1,00.0,38.5,31.4,18.1,0000.0,0005.25,0013.85,0004.85
2022-10-06 01:17:00,,0833.8,4.99,0.00,29.7,27.4,00.0,38.5,31.4,18.2,0000.0,0005.27,0014.10,0004.85
2022-10-06 01:18:00,,0833.8,4.99,0.00,29.7,27.7,00.0,38.5,31.5,18.1,0000.0,0005.30,0014.50,0004.86
2022-10-06 01:19:00,,0833.8,5.00,0.00,29.7,27.9,00.0,38.5,31.5,18.2,0000.0,0005.28,0014.32,0004.84
2022-10-06 01:20:00,,0833.8,5.00,0.00,29.7,28.1,00.0,38.4,31.5,18.2,0000.0,0005.27,0014.08,0004.84
2022-10-06 01:21:00,,0833.8,5.00,0.00,29.7,28.2,00.0,38.4,31.5,18.2,0000.0,0005.27,0013.04,0004.84
2022-10-06 01:22:00,,0833.8,5.00,0.00,29.7,28.3,00.0,38.4,31.6,18.4,0000.0,0005.23,0012.31,0004.83
2022-10-06 01:23:00,,0833.8,5.01,0.00,29.7,28.4,00.0,38.4,31.6,18.3,0000.0,0005.22,0012.40,0004.82
2022-10-06 01:24:00,,0833.8,4.99,0.00,29.7,28.5,00.0,38.4,31.6,18.4,0000.0,0005.20,0012.53,0004.78
2022-10-06 01:25:00,,0833.8,5.01,0.00,29.8,28.5,00.0,38.5,31.6,18.4,0000.0,0005.15,0011.80,0004.74
2022-10-06 01:26:00,,0833.8,4.99,0.00,29.8,28.6,00.0,38.5,31.7,18.3,0000.0,0005.13,0012.20,0004.69
2022-10-06 01:27:00,,0833.8,5.02,0.00,29.8,28.6,00.0,38.5,31.7,18.2,0000.0,0005.09,0010.97,0004.65
2022-10-06 01:28:00,,0833.8,4.99,0.00,29.8,28.6,00.0,38.5,31.7,18.3,0000.0,0005.06,0010.22,0004.61
2022-10-06 01:29:00,,0833.8,5.00,0.00,29.8,28.7,00.0,38.5,31.8,18.2,0000.0,0005.01,0009.95,0004.58
2022-10-06 01:30:00,,0833.8,5.00,0.00,29.9,28.7,00.0,38.5,31.8,18.3,0000.0,0004.99,0009.44,0004.56
2022-10-06 01:31:00,,0833.8,5.00,0.00,29.9,28.7,00.0,38.5,31.8,18.2,0000.0,0004.96,0009.24,0004.54
2022-10-06 01:32:00,,0833.8,4.99,0.00,29.9,28.8,00.0,38.6,31.8,18.1,0000.0,0004.94,0009.20,0004.51
2022-10-06 01:33:00,,0833.8,5.00,0.00,29.9,28.8,00.0,38.6,31.9,18.2,0000.0,0004.94,0009.20,0004.49
2022-10-06 01:34:00,,0833.8,5.00,0.00,29.9,28.8,00.0,38.6,31.9,18.2,0000.0,0004.91,0009.03,0004.45
2022-10-06 01:35:00,,0833.8,4.99,0.00,30.0,28.8,00.0,38.6,31.9,18.2,0000.0,0004.90,0009.00,0004.44
2022-10-06 01:36:00,,0833.9,5.00,0.00,30.0,28.8,00.0,38.6,31.9,18.4,0000.0,0004.90,0009.29,0004.44
2022-10-06 01:37:00,,0833.8,5.00,0.00,30.0,28.8,00.0,38.7,31.9,18.4,0000.0,0004.86,0008.36,0004.44
2022-10-06 01:38:00,,0833.8,4.99,0.00,30.0,28.9,00.0,38.7,31.9,18.4,0000.0,0004.83,0008.28,0004.42
2022-10-06 01:39:00,,0833.8,5.01,0.00,30.0,28.9,00.0,38.7,31.9,18.4,0000.0,0004.81,0008.09,0004.43
2022-10-06 01:40:00,,0833.8,4.98,0.00,30.1,28.9,00.0,38.7,32.0,18.5,0000.0,0004.78,0008.04,0004.41
2022-10-06 01:41:00,,0833.8,5.01,0.00,30.1,28.7,00.0,38.7,32.0,18.5,0000.0,0004.81,0008.19,0004.40
2022-10-06 01:42:00,,0833.9,5.00,0.00,30.1,27.2,00.0,38.7,31.9,18.5,0000.0,0004.81,0008.32,0004.39
2022-10-06 01:43:00,,0833.8,4.99,0.00,30.0,26.2,00.0,38.6,31.7,18.5,0000.0,0004.80,0008.31,0004.38
2022-10-06 01:44:00,,0833.9,5.01,0.00,29.9,26.3,00.0,38.6,31.5,18.7,0000.0,0004.76,0008.40,0004.36
2022-10-06 01:45:00,,0833.9,5.00,0.00,29.8,26.6,00.0,38.6,31.4,18.7,0000.0,0004.75,0008.65,0004.36
2022-10-06 01:46:00,,0833.9,5.01,0.00,29.7,27.0,00.0,38.5,31.4,18.8,0000.0,0004.75,0008.77,0004.35
2022-10-06 01:47:00,,0833.9,5.00,0.00,29.7,27.3,00.0,38.5,31.4,18.9,0000.0,0004.78,0008.66,0004.35
2022-10-06 01:48:00,,0833.9,4.99,0.00,29.7,27.6,00.0,38.5,31.4,19.0,0000.0,0004.80,0008.74,0004.35
2022-10-06 01:49:00,,0833.9,5.01,0.00,29.7,27.8,00.0,38.5,31.4,18.9,0000.0,0004.80,0008.74,0004.35
2022-10-06 01:50:00,,0833.9,4.99,0.00,29.7,27.9,00.0,38.4,31.4,18.9,0000.0,0004.82,0008.81,0004.35
2022-10-06 01:51:00,,0833.9,5.01,0.00,29.7,28.1,00.0,38.4,31.5,18.9,0000.0,0004.84,0009.01,0004.36
2022-10-06 01:52:00,,0834.0,4.99,0.00,29.7,28.2,00.0,38.4,31.5,18.9,0000.0,0004.82,0009.01,0004.36
2022-10-06 01:53:00,,0834.0,5.01,0.00,29.7,28.2,00.0,38.4,31.5,18.9,0000.0,0004.78,0008.93,0004.36
2022-10-06 01:54:00,,0834.0,4.99,0.00,29.7,28.3,00.0,38.4,31.5,18.9,0000.0,0004.77,0008.97,0004.37
2022-10-06 01:55:00,,0834.0,5.01,0.00,29.7,28.3,00.0,38.4,31.6,18.8,0000.0,0004.76,0009.01,0004.37
2022-10-06 01:56:00,,0834.0,4.98,0.00,29.7,28.4,00.0,38.4,31.6,18.8,0000.0,0004.76,0008.80,0004.37
2022-10-06 01:57:00,,0834.0,5.02,0.00,29.7,28.4,00.0,38.4,31.6,18.8,0000.0,0004.76,0009.04,0004.37
2022-10-06 01:58:00,,0834.0,4.99,0.00,29.7,28.4,00.0,38.4,31.6,18.9,0000.0,0004.72,0008.92,0004.36
2022-10-06 01:59:00,,0834.0,5.01,0.00,29.7,28.5,00.0,38.5,31.6,18.8,0000.0,0004.68,0009.01,0004.35
